Regional Weather Roundup
Issued by NWS Sioux Falls, SD

Home | Current Version | Previous Version | Text Only | Print | Product List | Glossary On
Versions: 1 2 3 4 5 6 7 8 9 10 11 12 13 14 15 16 17 18 19 20 21 22 23 24 25 26 27 28 29 30 31 32 33 34 35 36 37 38 39 40 41 42 43 44 45 46 47 48 49 50
000
ASUS43 KFSD 271202
RWRFSD

WEATHER ROUNDUP FOR SE SOUTH DAKOTA/SW MINNESOTA/NW IOWA
NATIONAL WEATHER SERVICE SIOUX FALLS SD
600 AM CST FRI FEB 27 2015

NOTE: "FAIR" INDICATES FEW OR NO CLOUDS BELOW 12,000 FEET WITH NO
SIGNIFICANT WEATHER AND OR OBSTRUCTIONS TO VISIBILITY.


SDZ038>040-050-052>070-271300-
SOUTHEAST SOUTH DAKOTA

CITY           SKY/WX    TMP DP  RH WIND       PRES   REMARKS
CHAMBERLAIN    NOT AVBL
HURON          MOCLDY   -18 -21  87 CALM      30.53S
6HR MIN TEMP: -18; 6HR MAX TEMP: -10;

MADISON        FAIR     N/A N/A N/A MISG      30.47S
MITCHELL       CLEAR     -5 -10  79 SW5       30.55S WCI -16
6HR MIN TEMP:  -5; 6HR MAX TEMP:  -3;

SIOUX FALLS    FAIR     -11 -16  78 W3        30.52S
6HR MIN TEMP: -11; 6HR MAX TEMP:  -6;

WINNER         FAIR       1  -9  62 SW5       30.44F WCI  -9
YANKTON        CLEAR     -4  -8  84 CALM      30.57S
$$

MNZ071-072-080-081-089-090-097-098-271300-
SOUTHWEST MINNESOTA

CITY           SKY/WX    TMP DP  RH WIND       PRES   REMARKS
FAIRMONT       PTCLDY    -9 -15  77 W6        30.50S WCI -23
JACKSON        CLEAR    -11 -17  77 W6        30.51R WCI -25
LUVERNE        PTCLDY    -9 -15  77 CALM      30.53S
MARSHALL       CLEAR     -8 -17  65 W9        30.52S WCI -25
6HR MIN TEMP:  -9; 6HR MAX TEMP:  -6;

MONTEVIDEO     PTCLDY    -9 -15  77 W5        30.54S WCI -21
PIPESTONE      FAIR     -15 -20  76 CALM      30.47S
REDWOOD FALLS  FAIR     -10 -15  78 W7        30.54R WCI -25
TRACY          CLEAR     -8 -14  76 SW8       30.50S WCI -25
WINDOM         CLEAR    -15 -18  84 CALM      30.50S
WORTHINGTON    PTCLDY    18 -26  13 W8        30.51R WCI   7
$$

IAZ001>003-012>014-020>022-031-032-NEZ013-014-SDZ071-271300-
NORTHWEST IOWA

CITY           SKY/WX    TMP DP  RH WIND       PRES   REMARKS
DENISON        PTCLDY   -17 -24  70 CALM      30.56S
ESTHERVILLE    CLEAR    -14 -18  82 W9        30.52R WCI -33
SIOUX CITY     CLEAR     -7 -12  79 W3        30.59R
6HR MIN TEMP:  -9; 6HR MAX TEMP:  -2;

SPENCER        PTCLDY   -13 -19  75 W3        30.54R
6HR MIN TEMP: -15; 6HR MAX TEMP: -11;

$$

ABBREVIATIONS USED IN REMARKS
   TC - TEMPERATURE IN CELSIUS
  WCI - WIND CHILL INDEX
   HX - HEAT INDEX
  VSB - VISIBILITY



USA.gov is the U.S. government's official web portal to all federal, state and local government web resources and services.